[Date Prev][Date Next][Thread Prev][Thread Next] - [Date Index][Thread Index][Author Index]
2 Line ISS Keps 12-29
- Subject: [sarex] 2 Line ISS Keps 12-29
- From: "Dave Larsen PhD" <doc@xxxxxxxxxxx>
- Date: Mon, 29 Dec 2003 03:30:58 -0800
ISS
1 25544U 98067A 03363.17739412 .00027274 00000-0 26479-3 0 9442
2 25544 51.6298 115.7784 0006385 313.8870 123.6818 15.66098433291497
----
Via the sarex mailing list at AMSAT.ORG courtesy of AMSAT-NA.
To unsubscribe, send "unsubscribe sarex" to Majordomo@amsat.org
AMSAT Home